Weather in Yerevan

Armenia     40˚10′39″N   44˚30′45″E
temp.,
°C
wind,
m/s
gust,
m/s
humid.,
%
clouds,
%
prec.,
mm/h
press.,
hPa
HPBL,
m
3 december, thu
thu301:00+2˚ne22650 0.0 102740
04:00+2˚ne22660 0.0 102734
07:00+1˚ne22680 0.0 102835
10:00+4˚ne11570 0.0 102876
13:00+7˚sw11480 0.0 1026595
16:00+7˚ssw11460 0.0 1025686
19:00+4˚nne11580 0.0 102727
22:00+3˚ne22590 0.0 102860
4 december, fri
fri401:00+2˚ne22580 0.0 102847
04:00+2˚ne23601 0.0 102851
07:00+1˚ne22640 0.0 102847
10:00+4˚ne125211 0.0 1028108
13:00+6˚wsw114641 0.0 1026839
16:00+7˚sw214522 0.0 1024909
19:00+4˚n11590 0.0 102640
22:00+2˚ne22580 0.0 102670
5 december, sat
sat501:00+2˚ne226019 0.0 102760
04:00+1˚ne236417 0.0 102658
07:00ne226946 0.0 102649
10:00+3˚ne115744 0.0 1026115
13:00+6˚sw21498 0.0 1023850
16:00+6˚sw21487 0.0 1022931
19:00+3˚wsw01620 0.0 1024105
22:00+2˚ne226117 0.0 102451
6 december, sun
sun601:00+1˚ne235945 0.0 102570
04:00+2˚ne226171 0.0 102575
07:00+1˚ne226195 0.0 102559
10:00+3˚ene015492 0.0 1025167
13:00+5˚sw215152 0.0 1023828
16:00+5˚sw225029 0.0 1021921
19:00+2˚nnw016518 0.0 1024131
22:00+2˚ne236054 0.0 1026115
7 december, mon
mon701:00+1˚ne346096 0.0 1027129
04:00+1˚ne236398 0.0 1028220
07:00ene126899 0.0 102878
10:00+1˚ese016699 0.1 1029372
13:00+3˚sw216287 0.0 1027717
16:00+4˚ssw216074 0.1 1026862
19:00+2˚ssw016855 0.0 1028548
22:00ne117338 0.0 102944